Regional Weather Roundup
Issued by NWS

Home | Current Version | Previous Version | Graphics & Text | Print | Product List | Glossary Off
Versions: 1 2 3 4 5 6 7 8 9 10 11 12 13 14 15 16 17 18 19 20 21 22 23 24 25 26 27 28 29 30 31 32 33 34 35 36 37 38 39 40 41 42 43 44 45 46 47 48 49 50

000
ASUS43 KTOP 240359
RWRKS

WEATHER ROUNDUP FOR KANSAS
NATIONAL WEATHER SERVICE GOODLAND KS
1100 PM CDT WED AUG 23 2017

NOTE:  "FAIR" INDICATES FEW OR NO CLOUDS BELOW 12,000 FEET WITH NO
SIGNIFICANT WEATHER AND/OR OBSTRUCTIONS TO VISIBILITY.

KSZ001>006-013>018-027>032-041>047-240500-
NORTHWEST KANSAS

CITY           SKY/WX    TMP DP  RH WIND       PRES   REMARKS
GOODLAND       CLEAR     68  62  81 S9        30.06R
HILL CITY      CLEAR     70  50  49 S8        30.05R
RUSSELL        CLEAR     68  51  54 SE12      30.04R
$$

KSZ061>065-074>080-084>089-240500-
SOUTHWEST KANSAS

CITY           SKY/WX    TMP DP  RH WIND       PRES   REMARKS
DODGE CITY     CLEAR     67  50  54 SE10      30.07R
ELKHART          N/A     65  66 100 SE8         N/A
GARDEN CITY    CLEAR     66  55  67 SE8       30.07R
GREAT BEND     CLEAR     64  51  62 SE8       30.06R
LIBERAL        CLOUDY    68  64  87 S9        30.08R
$$

KSZ066>073-081>083-090>101-240500-
SOUTHEAST KANSAS

CITY           SKY/WX    TMP DP  RH WIND       PRES   REMARKS
CHANUTE        CLEAR     66  56  70 E6        30.06S
COFFEYVILLE    CLEAR     61  57  87 NE6       30.04S
HUTCHINSON     CLEAR     66  54  65 SE8       30.06R
MEDICINE LODGE   N/A     69  53  56 E5        30.06R
NEWTON         CLEAR     63  56  78 SE8       30.07S
PARSONS        CLEAR     60  57  89 CALM      30.06S
WICHITA INTL   CLEAR     69  55  60 SE9       30.06R
WICHITA JABRA  CLEAR     64  57  78 E3        30.06S
WINFIELD       CLEAR     66  55  67 E5        30.07R
$$

KSZ007>012-019>026-033>040-048>060-102>105-240500-
NORTHEAST KANSAS

CITY           SKY/WX    TMP DP  RH WIND       PRES   REMARKS
CONCORDIA      CLEAR     62  57  83 SE7       30.05S
EMPORIA        CLEAR     64  57  78 SE6       30.06F
LAWRENCE       CLEAR     63  62  97 CALM      30.06R
MANHATTAN      CLEAR     64  58  80 CALM      30.06R
OLATHE IND     CLEAR     66  57  72 SE6       30.07S
OLATHE EXE     CLEAR     64  58  80 SE5       30.07S
SALINA         CLEAR     70  53  54 SE10      30.06R
TOPEKA BILLARD CLEAR     65  61  87 CALM      30.05S
TOPEKA FORBES  CLEAR     65  61  87 CALM      30.06S
$$



USA.gov is the U.S. government's official web portal to all federal, state and local government web resources and services.